• In Hungary
  • List of Countries
  • For 7 days
  • Water Temperature
  • Satellite Maps
  • Weather Map
  • News
  • Weather Widgets
  • user-avatar
    Login

    Hourly Weather Kitzbuhel

    Today, 25 September, Monday

    Time Temperature Precipitation Wind Pressure Humidity
    00:00 +7°C° 0 mm 1 mps 679 mmHg 92%
    01:00 +7°C° 0 mm 1 mps 679 mmHg 90%
    02:00 +7°C° 0 mm 1 mps 678 mmHg 90%
    03:00 +6°C° 0 mm 1 mps 678 mmHg 89%
    04:00 +6°C° 0 mm 1 mps 678 mmHg 88%
    05:00 +6°C° 0 mm 1 mps 678 mmHg 87%
    06:00 +6°C° 0 mm 1 mps 678 mmHg 86%
    07:00 +8°C° 0 mm 1 mps 678 mmHg 84%
    08:00 +10°C° 0 mm 1 mps 679 mmHg 79%
    09:00 +12°C° 0 mm 1 mps 679 mmHg 73%
    10:00 +13°C° 0 mm 0 mps 679 mmHg 67%
    11:00 +15°C° 0 mm 1 mps 679 mmHg 65%
    12:00 +15°C° 0 mm 1 mps 679 mmHg 63%
    13:00 +16°C° 0 mm 1 mps 679 mmHg 61%
    14:00 +16°C° 0.2 mm 1 mps 679 mmHg 66%
    15:00 +15°C° 0.2 mm 1 mps 679 mmHg 70%
    16:00 +15°C° 0.2 mm 1 mps 679 mmHg 74%
    17:00 +13°C° 0.2 mm 1 mps 678 mmHg 80%
    18:00 +11°C° 0.2 mm 1 mps 678 mmHg 86%
    19:00 +9°C° 0.2 mm 1 mps 678 mmHg 92%
    20:00 +9°C° 0 mm 1 mps 678 mmHg 92%
    21:00 +8°C° 0 mm 1 mps 679 mmHg 92%
    22:00 +8°C° 0 mm 1 mps 679 mmHg 92%
    23:00 +7°C° 0 mm 1 mps 679 mmHg 92%

    Tomorrow, 26 September, Tuesday

    Time Temperature Precipitation Wind Pressure Humidity
    00:00 +7°C° 0 mm 1 mps 679 mmHg 92%
    01:00 +7°C° 0 mm 1 mps 679 mmHg 92%
    02:00 +7°C° 0 mm 1 mps 679 mmHg 91%
    03:00 +6°C° 0 mm 1 mps 679 mmHg 91%
    04:00 +6°C° 0 mm 1 mps 679 mmHg 91%
    05:00 +6°C° 0 mm 1 mps 679 mmHg 90%
    06:00 +7°C° 0 mm 1 mps 679 mmHg 88%
    07:00 +7°C° 0 mm 1 mps 679 mmHg 87%
    08:00 +10°C° 0 mm 1 mps 680 mmHg 79%
    09:00 +13°C° 0 mm 1 mps 680 mmHg 70%
    10:00 +15°C° 0 mm 1 mps 681 mmHg 61%
    11:00 +16°C° 0 mm 1 mps 681 mmHg 60%
    12:00 +18°C° 0 mm 1 mps 681 mmHg 58%
    13:00 +18°C° 0 mm 1 mps 681 mmHg 56%
    14:00 +18°C° 0.2 mm 1 mps 681 mmHg 61%
    15:00 +16°C° 0.2 mm 1 mps 681 mmHg 65%
    16:00 +16°C° 0.2 mm 2 mps 680 mmHg 70%
    17:00 +14°C° 0.1 mm 1 mps 680 mmHg 78%
    18:00 +12°C° 0.1 mm 1 mps 680 mmHg 85%
    19:00 +9°C° 0.1 mm 1 mps 680 mmHg 92%
    20:00 +9°C° 0 mm 1 mps 680 mmHg 92%
    21:00 +9°C° 0 mm 1 mps 681 mmHg 91%
    22:00 +8°C° 0 mm 1 mps 681 mmHg 91%
    23:00 +8°C° 0 mm 1 mps 681 mmHg 90%

    Day after tomorrow, 27 September, Wednesday

    Time Temperature Precipitation Wind Pressure Humidity
    00:00 +8°C° 0 mm 1 mps 681 mmHg 90%
    01:00 +8°C° 0 mm 1 mps 681 mmHg 89%
    02:00 +7°C° 0 mm 1 mps 681 mmHg 89%
    03:00 +7°C° 0 mm 1 mps 681 mmHg 88%
    04:00 +7°C° 0 mm 1 mps 681 mmHg 88%
    05:00 +7°C° 0 mm 1 mps 681 mmHg 87%
    06:00 +8°C° 0 mm 1 mps 681 mmHg 86%
    07:00 +8°C° 0 mm 1 mps 681 mmHg 85%
    08:00 +11°C° 0 mm 1 mps 682 mmHg 77%
    09:00 +14°C° 0 mm 1 mps 682 mmHg 69%
    10:00 +16°C° 0 mm 1 mps 683 mmHg 61%
    11:00 +18°C° 0 mm 1 mps 683 mmHg 59%
    12:00 +19°C° 0 mm 1 mps 683 mmHg 56%
    13:00 +20°C° 0 mm 1 mps 683 mmHg 54%
    14:00 +19°C° 0.1 mm 1 mps 683 mmHg 58%
    15:00 +18°C° 0.1 mm 2 mps 682 mmHg 63%
    16:00 +17°C° 0.1 mm 2 mps 682 mmHg 67%
    17:00 +15°C° 0.1 mm 1 mps 682 mmHg 75%
    18:00 +13°C° 0.1 mm 1 mps 682 mmHg 83%
    19:00 +11°C° 0.1 mm 1 mps 681 mmHg 91%
    20:00 +10°C° 0 mm 1 mps 682 mmHg 91%
    21:00 +10°C° 0 mm 1 mps 682 mmHg 90%
    22:00 +9°C° 0 mm 2 mps 682 mmHg 90%
    23:00 +8°C° 0 mm 2 mps 682 mmHg 90%

    28 September, Thursday

    Time Temperature Precipitation Wind Pressure Humidity
    00:00 +8°C° 0 mm 2 mps 682 mmHg 90%
    01:00 +9°C° 0 mm 1 mps 682 mmHg 89%
    02:00 +9°C° 0 mm 1 mps 682 mmHg 89%
    03:00 +8°C° 0 mm 1 mps 682 mmHg 89%
    04:00 +8°C° 0 mm 1 mps 682 mmHg 88%
    05:00 +9°C° 0 mm 1 mps 682 mmHg 87%
    06:00 +9°C° 0 mm 1 mps 682 mmHg 85%
    07:00 +9°C° 0 mm 1 mps 682 mmHg 84%
    08:00 +12°C° 0 mm 1 mps 683 mmHg 74%
    09:00 +14°C° 0 mm 0 mps 683 mmHg 65%
    10:00 +17°C° 0 mm 0 mps 684 mmHg 56%
    11:00 +18°C° 0 mm 0 mps 684 mmHg 54%
    12:00 +20°C° 0 mm 1 mps 684 mmHg 52%
    13:00 +21°C° 0 mm 1 mps 684 mmHg 51%
    14:00 +20°C° 0.1 mm 1 mps 683 mmHg 56%
    15:00 +19°C° 0.1 mm 1 mps 683 mmHg 62%
    16:00 +19°C° 0.1 mm 1 mps 683 mmHg 67%
    17:00 +16°C° 0.1 mm 1 mps 682 mmHg 75%
    18:00 +13°C° 0.1 mm 1 mps 682 mmHg 84%
    19:00 +10°C° 0.1 mm 0 mps 682 mmHg 92%
    20:00 +11°C° 0 mm 1 mps 682 mmHg 92%
    21:00 +10°C° 0 mm 1 mps 682 mmHg 92%
    22:00 +10°C° 0 mm 1 mps 682 mmHg 92%
    23:00 +10°C° 0 mm 1 mps 682 mmHg 92%

    29 September, Friday

    Time Temperature Precipitation Wind Pressure Humidity
    00:00 +9°C° 0 mm 1 mps 682 mmHg 91%
    01:00 +9°C° 0 mm 1 mps 682 mmHg 91%
    02:00 +9°C° 0 mm 1 mps 682 mmHg 91%
    03:00 +9°C° 0 mm 1 mps 682 mmHg 90%
    04:00 +8°C° 0 mm 1 mps 681 mmHg 90%
    05:00 +9°C° 0 mm 1 mps 682 mmHg 88%
    06:00 +9°C° 0 mm 1 mps 682 mmHg 87%
    07:00 +9°C° 0 mm 1 mps 682 mmHg 85%
    08:00 +12°C° 0 mm 1 mps 682 mmHg 77%
    09:00 +14°C° 0 mm 1 mps 683 mmHg 68%
    10:00 +16°C° 0 mm 0 mps 683 mmHg 60%
    11:00 +19°C° 0 mm 1 mps 683 mmHg 58%
    12:00 +19°C° 0 mm 1 mps 683 mmHg 56%
    13:00 +20°C° 0 mm 1 mps 682 mmHg 54%
    14:00 +19°C° 0.1 mm 1 mps 682 mmHg 58%
    15:00 +19°C° 0.1 mm 1 mps 682 mmHg 63%
    16:00 +18°C° 0.1 mm 1 mps 681 mmHg 68%
    17:00 +15°C° 0 mm 1 mps 681 mmHg 77%
    18:00 +13°C° 0 mm 1 mps 681 mmHg 85%
    19:00 +11°C° 0 mm 1 mps 681 mmHg 94%
    20:00 +10°C° 0 mm 1 mps 681 mmHg 94%
    21:00 +10°C° 0 mm 1 mps 680 mmHg 94%
    22:00 +9°C° 0 mm 1 mps 680 mmHg 95%
    23:00 +9°C° 0 mm 1 mps 680 mmHg 94%

    30 September, Saturday

    Time Temperature Precipitation Wind Pressure Humidity
    00:00 +9°C° 0 mm 1 mps 680 mmHg 93%
    01:00 +9°C° 0 mm 1 mps 680 mmHg 93%
    02:00 +8°C° 0 mm 1 mps 680 mmHg 91%
    03:00 +8°C° 0 mm 1 mps 679 mmHg 90%
    04:00 +8°C° 0 mm 1 mps 679 mmHg 88%
    05:00 +8°C° 0 mm 1 mps 679 mmHg 86%
    06:00 +9°C° 0 mm 1 mps 679 mmHg 84%
    07:00 +9°C° 0 mm 1 mps 679 mmHg 82%
    08:00 +11°C° 0 mm 1 mps 680 mmHg 75%
    09:00 +14°C° 0 mm 1 mps 680 mmHg 69%
    10:00 +16°C° 0 mm 1 mps 680 mmHg 62%
    11:00 +18°C° 0 mm 1 mps 680 mmHg 61%
    12:00 +18°C° 0 mm 1 mps 679 mmHg 59%
    13:00 +18°C° 0 mm 2 mps 679 mmHg 58%
    14:00 +17°C° 0.2 mm 2 mps 679 mmHg 63%
    15:00 +16°C° 0.2 mm 2 mps 678 mmHg 69%
    16:00 +15°C° 0.2 mm 2 mps 678 mmHg 74%
    17:00 +14°C° 0.2 mm 1 mps 678 mmHg 81%
    18:00 +12°C° 0.2 mm 1 mps 677 mmHg 88%
    19:00 +10°C° 0.2 mm 1 mps 677 mmHg 94%
    20:00 +10°C° 0 mm 1 mps 677 mmHg 94%
    21:00 +9°C° 0 mm 1 mps 677 mmHg 95%
    22:00 +9°C° 0 mm 1 mps 677 mmHg 95%
    23:00 +9°C° 0 mm 1 mps 677 mmHg 94%
    Show more